TimeMST,TemperatureF,Dew PointF,Humidity,Sea Level PressureIn,VisibilityMPH,Wind Direction,Wind SpeedMPH,Gust SpeedMPH,PrecipitationIn,Events,Conditions,WindDirDegrees,DateUTC
1:42 AM,6.8,3.2,85,30.37,9.0,WNW,4.6,-,N/A,,Mostly Cloudy,300,2013-03-05 08:42:00
1:53 AM,5.0,1.9,87,30.51,10.0,Calm,Calm,-,N/A,,Mostly Cloudy,0,2013-03-05 08:53:00
2:03 AM,6.8,3.2,85,30.37,10.0,WNW,3.5,-,N/A,,Scattered Clouds,290,2013-03-05 09:03:00
2:53 AM,7.0,3.0,84,30.50,10.0,WSW,3.5,-,N/A,,Clear,250,2013-03-05 09:53:00
3:53 AM,5.0,1.0,84,30.50,10.0,West,5.8,-,N/A,,Clear,270,2013-03-05 10:53:00
4:53 AM,3.9,-0.0,84,30.51,10.0,WNW,3.5,-,N/A,,Clear,290,2013-03-05 11:53:00
6:53 AM,3.0,-2.0,80,30.52,9.0,ESE,3.5,-,N/A,,Clear,120,2013-03-05 13:53:00
7:53 AM,5.0,1.9,87,30.52,10.0,SSE,5.8,-,N/A,,Clear,150,2013-03-05 14:53:00
8:53 AM,8.1,3.9,83,30.52,10.0,SSE,5.8,-,N/A,,Clear,150,2013-03-05 15:53:00
9:53 AM,10.9,7.0,84,30.50,10.0,SSE,8.1,-,N/A,,Clear,160,2013-03-05 16:53:00
10:53 AM,15.1,10.0,80,30.48,10.0,SSE,6.9,-,N/A,,Clear,160,2013-03-05 17:53:00
11:53 AM,17.1,10.9,77,30.48,10.0,SE,4.6,-,N/A,,Clear,140,2013-03-05 18:53:00
12:53 PM,19.9,12.9,74,30.44,10.0,SE,6.9,-,N/A,,Clear,130,2013-03-05 19:53:00
1:53 PM,23.0,14.0,68,30.40,10.0,SE,9.2,-,N/A,,Clear,140,2013-03-05 20:53:00
2:53 PM,24.1,15.1,69,30.38,10.0,SE,10.4,-,N/A,,Clear,140,2013-03-05 21:53:00
3:53 PM,24.1,16.0,71,30.36,10.0,ESE,11.5,-,N/A,,Clear,120,2013-03-05 22:53:00
4:53 PM,23.0,15.1,72,30.36,10.0,ESE,6.9,-,N/A,,Clear,120,2013-03-05 23:53:00
5:53 PM,23.0,14.0,68,30.33,10.0,East,6.9,-,N/A,,Clear,100,2013-03-06 00:53:00
6:53 PM,19.9,14.0,78,30.33,10.0,NE,6.9,-,N/A,,Clear,50,2013-03-06 01:53:00
7:53 PM,19.0,14.0,81,30.33,10.0,NE,9.2,-,N/A,,Clear,50,2013-03-06 02:53:00
8:53 PM,17.1,12.9,84,30.32,10.0,NE,8.1,-,N/A,,Clear,50,2013-03-06 03:53:00
9:53 PM,18.0,12.9,81,30.30,10.0,ENE,8.1,-,N/A,,Clear,70,2013-03-06 04:53:00
10:53 PM,19.9,12.9,74,30.27,10.0,East,5.8,-,N/A,,Clear,100,2013-03-06 05:53:00
11:53 PM,19.9,14.0,78,30.24,10.0,ESE,6.9,-,N/A,,Clear,120,2013-03-06 06:53:00